Back to catalog

STARLINK-3817

AliveCommunicationsVLEO
NORAD 52367·PAYLOAD·🇺🇸 United States

Launched Apr 29, 2022 from Cape Canaveral Space Force Station

Loading…

Next Passes (next 24 hours)

TLE

FreshSource: CelesTrak SupGP

Epoch: Sep 15, 2026, 01:52 UTC

1 52367C 22045AN  26258.07826389 -.00039063  00000+0 -11856-2 0  2585
2 52367  53.1586  50.9750 0001332  88.0133 337.0559 15.33562018    18

Track STARLINK-3817 in real time with AllMySat

Download on the App Store